Location: Geremba
(10.4250°N, 67.2394°W)
Time: 20:49:03
(UTC+00:00)

Hubble Space Telescope - Pass Details

Date: 23 May 2024
Orbit: 510 x 514 km, 28.5° (Epoch: 25 June)

Event Time Altitude Azimuth Distance (km) Brightness Sun altitude
Exits shadow 08:30:15 30° 333° (NNW) 928 1.9 -22.4°
Maximum altitude 08:31:44 45° 26° (NNE) 692 1.6 -22.0°
Drops below altitude 10° 08:35:32 10° 100° (E) 1,713 4.0 -21.2°
Sets 08:37:50 0° 107° (ESE) 2,599 5.0 -20.7°
